Погода в Зелёной Роще

Россия / Республика Татарстан     54°29′00″N   52°02′44″E
темп.,
°C
ветер,
м/с
пор.,
м/с
влажн.,
%
обл.,
%
осадки,
мм/ч
давл.,
гПа
погр.,
м
6 марта, сб
сб600:00−14юз229639 0.0 101021
03:00−14юз339762 0.0 101230
06:00−15ююз349763 0.0 101161
09:00−10зюз589581 0.3 1013350
12:00−8з4793100 0.1 1013458
15:00−8зсз5688100 0.3 1013782
18:00−14зсз3396100 0.1 101439
21:00−16зсз2298100 0.1 101420
7 марта, вс
вс700:00−19зюз1110030 0.0 101320
03:00−19юз1110054 0.0 101320
06:00−20ююз1110075 0.0 101220
09:00−15юз229249 0.0 1012143
12:00−11зюз349279 0.0 1011335
15:00−10юз469389 0.1 1010343
18:00−14ю479885 0.0 1009101
21:00−14ю4109891 0.1 1008216
8 марта, пн
пн800:00−13ю51395100 0.1 1005411
03:00−9ю71594100 1.0 1001790
06:00−7ююз81594100 1.2 999835
09:00−6з5108395 2.3 1000584
12:00−5юз587921 0.0 1002486
15:00−5ю4108112 0.0 1001576
18:00−4ю61496100 0.6 998803
21:00−3ююз91595100 1.9 996908
9 марта, вт
вт900:00−10юз8168592 1.3 996562
03:00−10юз8159389 1.5 999619
06:00−10зюз81392100 0.5 1003595
09:00−11зюз71291100 0.6 1005607
12:00−9зюз6990100 0.1 1008657
15:00−10зюз6890100 0.3 1009748
18:00−13зюз3796100 0.1 1010181
21:00−15з2397100 0.3 101246
10 марта, ср
ср1000:00−18з239998 0.1 101124
03:00−19з239999 0.1 101233
06:00−18з2398100 0.1 101266
09:00−16зсз469598 0.1 1013308
12:00−13зсз5689100 0.1 1014654
15:00−14сз5790100 0.2 1015676
18:00−17зсз499698 0.1 1016271
21:00−20зсз3610092 0.1 1019121